Weather History for EGUN - September, 2013

Change the Weather History Date:

Saturday, September 7, 2013

  Actual Average (EGSC) Record (EGSC)
Temperature  
Mean Temperature 58 °F -  
Max Temperature 67 °F 68 °F 77 °F (2012)
Min Temperature 50 °F 53 °F 46 °F (2003)
Degree Days  
Heating Degree Days 6    
Growing Degree Days 8 (Base 50)    
Moisture  
Dew Point 49 °F    
Average Humidity 70    
Maximum Humidity 96    
Minimum Humidity 47    
Precipitation  
Precipitation 0.00 in - - ()
Sea Level Pressure  
Sea Level Pressure 29.93 in    
Wind  
Wind Speed 10 mph ()    
Max Wind Speed 16 mph    
Max Gust Speed 23 mph    
Visibility 6.2 miles    
Events Rain    
Averages and records for this station are not official NWS values.
T = Trace of Precipitation, MM = Missing Value Source: Averaged Metar Reports

Daily Weather History Graph

Daily Weather History Graph

Search for Another Location

Airport or City:

Trip Planner

Search our weather history database for the weather conditions in past years. The results will help you decide how hot, cold, wet, or windy it might be!

Date:

Astronomy

Sep. 07, 2013 Rise Set
Actual Time 6:19 AM BST 7:31 PM BST
Civil Twilight 5:44 AM BST 8:06 PM BST
Nautical Twilight 5:01 AM BST 8:48 PM BST
Astronomical Twilight 4:15 AM BST 9:34 PM BST
Moon 8:40 AM BST (9/7) 7:55 PM BST (9/7)
Length of Visible Light 14h 22m
Length of Day
13h 12m
Waxing Crescent, 4% of the Moon is Illuminated
Sep 7
Waxing Crescent
Sep 12
First Quarter
Sep 19
Full
Sep 27
Last Quarter
Oct 5
New

Hourly Weather History & Observations

Time (BST) Temp. Dew Point Humidity Pressure Visibility Wind Dir Wind Speed Gust Speed Precip Events Conditions
12:58 AM 52.9 °F 51.8 °F 96% 29.84 in 6.2 mi South 8.1 mph - N/A   Clear
1:58 AM 52.2 °F 50.7 °F 95% 29.85 in 6.2 mi South 8.1 mph - N/A   Mostly Cloudy
2:58 AM 53.4 °F 51.3 °F 92% 29.85 in 6.2 mi SSE 8.1 mph - N/A   Overcast
3:02 AM 53.6 °F 51.8 °F 94% 29.84 in 6.2 mi SSE 8.1 mph - N/A Rain Light Rain
3:14 AM 53.6 °F 51.8 °F 94% 29.85 in 6.2 mi SSE 8.1 mph - N/A   Overcast
3:58 AM 53.6 °F 50.5 °F 89% 29.87 in 6.2 mi SSE 8.1 mph - 0.00 in   Overcast
4:58 AM 52.0 °F 49.5 °F 91% 29.87 in 6.2 mi SSE 8.1 mph - N/A   Partly Cloudy
5:58 AM 50.7 °F 48.9 °F 94% 29.88 in 6.2 mi SSE 6.9 mph - N/A   Clear
6:58 AM 51.3 °F 49.5 °F 94% 29.89 in 6.2 mi SSE 8.1 mph - N/A   Partly Cloudy
7:58 AM 55.8 °F 51.3 °F 85% 29.90 in 6.2 mi South 12.7 mph 19.6 mph N/A   Mostly Cloudy
8:58 AM 58.3 °F 51.3 °F 77% 29.91 in 6.2 mi South 8.1 mph - N/A   Scattered Clouds
9:58 AM 61.0 °F 50.4 °F 68% 29.92 in 6.2 mi South 12.7 mph - N/A   Clear
10:53 AM 60.8 °F 50.0 °F 68% 29.92 in 6.2 mi SSW 16.1 mph 20.7 mph N/A   Overcast
10:58 AM 61.2 °F 49.6 °F 66% 29.93 in 6.2 mi SSW 16.1 mph - N/A   Overcast
11:03 AM 60.8 °F 50.0 °F 68% 29.92 in 6.2 mi SSW 13.8 mph - N/A   Overcast
11:46 AM 62.6 °F 50.0 °F 63% 29.92 in 6.2 mi South 12.7 mph - N/A   Overcast
11:55 AM 62.6 °F 48.2 °F 59% 29.93 in 6.2 mi South 15.0 mph - N/A   Overcast
11:58 AM 62.4 °F 48.2 °F 60% 29.94 in 6.2 mi South 16.1 mph - N/A   Overcast
12:04 PM 60.8 °F 48.2 °F 63% 29.93 in 6.2 mi South 16.1 mph - N/A   Overcast
12:05 PM 60.8 °F 48.2 °F 63% 29.93 in 6.2 mi South 15.0 mph - N/A   Overcast
12:17 PM 60.8 °F 48.2 °F 63% 29.93 in 6.2 mi South 15.0 mph - N/A Rain Light Rain
12:34 PM 59.0 °F 50.0 °F 72% 29.94 in 6.2 mi South 11.5 mph - N/A   Overcast
12:58 PM 61.3 °F 50.4 °F 67% 29.95 in 6.2 mi South 8.1 mph - 0.00 in   Mostly Cloudy
1:58 PM 65.3 °F 51.1 °F 60% 29.95 in 6.2 mi SSE 10.4 mph - N/A   Overcast
2:55 PM 64.4 °F 50.0 °F 59% 29.95 in 6.2 mi South 10.4 mph 20.7 mph N/A   Mostly Cloudy
2:58 PM 65.3 °F 49.6 °F 57% 29.96 in 6.2 mi South 12.7 mph 20.7 mph N/A   Mostly Cloudy
3:07 PM 64.4 °F 48.2 °F 56% 29.94 in 6.2 mi South 13.8 mph - N/A   Mostly Cloudy
3:08 PM 64.4 °F 48.2 °F 56% 29.94 in 6.2 mi South 12.7 mph - N/A   Mostly Cloudy
3:13 PM 66.2 °F 48.2 °F 52% 29.94 in 6.2 mi South 16.1 mph 23.0 mph N/A   Mostly Cloudy
3:58 PM 67.3 °F 46.2 °F 47% 29.96 in 6.2 mi South 13.8 mph - N/A   Partly Cloudy
4:48 PM 66.2 °F 46.4 °F 49% 29.95 in 6.2 mi SW 15.0 mph - N/A   Mostly Cloudy
4:51 PM 64.4 °F 46.4 °F 52% 29.95 in 6.2 mi South 15.0 mph - N/A   Mostly Cloudy
4:58 PM 64.2 °F 47.3 °F 54% 29.96 in 6.2 mi SSW 9.2 mph - N/A   Scattered Clouds
5:58 PM 64.6 °F 47.1 °F 53% 29.97 in 6.2 mi SSW 8.1 mph - N/A   Clear
6:58 PM 62.1 °F 46.4 °F 56% 29.98 in 6.2 mi SSW 9.2 mph - N/A   Mostly Cloudy
7:58 PM 58.5 °F 47.7 °F 67% 30.00 in 6.2 mi South 9.2 mph - N/A   Clear
8:58 PM 56.1 °F 47.7 °F 73% 30.03 in 6.2 mi South 8.1 mph - N/A   Clear
9:58 PM 54.5 °F 46.9 °F 76% 30.04 in 6.2 mi SSW 5.8 mph - N/A   Clear
10:58 PM 53.2 °F 46.8 °F 79% 30.05 in 6.2 mi South 6.9 mph - N/A   Clear
11:58 PM 51.8 °F 47.1 °F 84% 30.04 in 6.2 mi SSW 8.1 mph - N/A   Clear